Погода в Верхнем Яшкуле

Россия / Республика Калмыкия     46°29′38″N   44°09′19″E
темп.,
°C
ветер,
м/с
пор.,
м/с
влажн.,
%
обл.,
%
осадки,
мм/ч
давл.,
гПа
погр.,
м
17 апреля, сб
сб1700:00+12с6879100 0.1 1019201
03:00+12в2273100 0.1 101918
06:00+12в2370100 0.0 101865
09:00+11сз2282100 1.3 1020117
12:00+11з4692100 3.9 1021251
15:00+12зюз4589100 5.9 1021297
18:00+12юз5788100 0.2 1021350
21:00+11з4789100 0.4 1022224
18 апреля, вс
вс1800:00+9з4784100 0.0 1022147
03:00+8сз348990 0.0 102175
06:00+9св118599 0.0 102137
09:00+11ююв0178100 0.0 1020284
12:00+12в1177100 0.5 1019369
15:00+12ююв2275100 0.8 1019434
18:00+12юз2279100 0.0 101995
21:00+11юв2393100 0.8 1018109
19 апреля, пн
пн1900:00+11юв239598 0.1 101779
03:00+11юв3493100 0.9 1017124
06:00+11юв3592100 0.1 1016181
09:00+13ю3479100 0.8 1017346
12:00+14ююз248582 0.3 1016421
15:00+14зюз4686100 0.5 1015428
18:00+13юз4792100 0.4 1016353
21:00+13юз2498100 2.1 1016178
20 апреля, вт
вт2000:00+13ю3698100 2.9 1015215
03:00+13юв489697 3.1 1014269
06:00+12в61294100 0.5 1012456
09:00+15вюв101674100 0.6 1011765
12:00+17вюв121865100 0.1 1008935
15:00+20юв131855100 0.1 10071063
18:00+17юв111862100 0.8 1007702
21:00+14вюв3674100 1.6 1011163
21 апреля, ср
ср2100:00+13зсз3480100 0.0 101495
03:00+13ссз2295100 1.6 101568
06:00+13ю1189100 0.6 101629
09:00+14зсз446298 0.6 10191017
12:00+14з4361100 0.0 10201004
15:00+12зюз4479100 0.3 1021241
18:00+11з2287100 1.6 102287
21:00+10з2394100 5.3 1023113